�������l�o���
Date,Time,MP-1(��Sv/h),MP-2(��Sv/h),MP-3(��Sv/h),MP-4(��Sv/h),MP-5(��Sv/h),MP-6(��Sv/h),MP-7(��Sv/h),MP-8(��Sv/h),����,����(m/s),���J
2016/10/17,00:00,1.171,1.957,1.365,2.154,1.522,0.605,1.074,0.989,��,6.4,��
2016/10/17,00:10,1.170,1.959,1.365,2.157,1.522,0.605,1.076,0.988,��,6.9,��
2016/10/17,00:20,1.171,1.958,1.365,2.152,1.523,0.606,1.074,0.990,��,7.1,��
2016/10/17,00:30,1.173,1.958,1.366,2.154,1.524,0.607,1.073,0.990,��,7.1,��
2016/10/17,00:40,1.172,1.957,1.366,2.153,1.522,0.606,1.074,0.990,��,5.8,��
2016/10/17,00:50,1.170,1.960,1.366,2.154,1.520,0.605,1.076,0.991,��,5.6,��
2016/10/17,01:00,1.170,1.960,1.365,2.155,1.522,0.605,1.075,0.988,��쐼,5.3,��
2016/10/17,01:10,1.169,1.959,1.365,2.155,1.523,0.605,1.075,0.989,��쐼,3.9,��
2016/10/17,01:20,1.170,1.961,1.365,2.152,1.522,0.604,1.077,0.989,��쐼,4.4,��
2016/10/17,01:30,1.172,1.962,1.364,2.157,1.522,0.605,1.075,0.990,��쐼,5.8,��
2016/10/17,01:40,1.169,1.960,1.365,2.153,1.520,0.604,1.076,0.989,��,7.1,��
2016/10/17,01:50,1.174,1.959,1.366,2.152,1.522,0.605,1.074,0.992,��,7.2,��
2016/10/17,02:00,1.172,1.958,1.365,2.152,1.527,0.606,1.077,0.990,��쐼,7.4,��
2016/10/17,02:10,1.174,1.959,1.367,2.154,1.524,0.607,1.074,0.990,��,7.7,��
2016/10/17,02:20,1.172,1.959,1.366,2.154,1.526,0.607,1.075,0.992,��,8.0,��
2016/10/17,02:30,1.171,1.958,1.368,2.155,1.524,0.607,1.078,0.990,��,6.4,��
2016/10/17,02:40,1.172,1.960,1.366,2.152,1.525,0.606,1.074,0.991,��,5.8,��
2016/10/17,02:50,1.172,1.958,1.368,2.158,1.523,0.605,1.076,0.992,��,5.3,��
2016/10/17,03:00,1.174,1.958,1.367,2.157,1.521,0.607,1.076,0.991,��쓌,4.9,��
2016/10/17,03:10,1.174,1.960,1.366,2.154,1.523,0.605,1.076,0.990,��쓌,4.4,��
2016/10/17,03:20,1.171,1.960,1.368,2.156,1.523,0.606,1.075,0.992,��,3.5,��
2016/10/17,03:30,1.172,1.961,1.367,2.154,1.525,0.606,1.075,0.989,��쐼,3.0,��
2016/10/17,03:40,1.170,1.961,1.367,2.155,1.523,0.606,1.074,0.989,��쐼,2.9,��
2016/10/17,03:50,1.171,1.959,1.368,2.153,1.521,0.605,1.074,0.990,��쐼,2.9,��
2016/10/17,04:00,1.170,1.961,1.367,2.156,1.524,0.605,1.072,0.993,�쐼,2.9,��
2016/10/17,04:10,1.171,1.960,1.365,2.156,1.523,0.605,1.074,0.990,��,2.7,��
2016/10/17,04:20,1.173,1.958,1.368,2.152,1.520,0.605,1.074,0.992,���쐼,2.3,��
2016/10/17,04:30,1.170,1.961,1.367,2.156,1.524,0.606,1.073,0.990,�쐼,2.2,��
2016/10/17,04:40,1.173,1.960,1.367,2.154,1.520,0.605,1.077,0.989,��쐼,3.9,�L
2016/10/17,04:50,1.169,1.953,1.365,2.152,1.519,0.604,1.076,0.989,��쐼,3.8,�L
2016/10/17,05:00,1.171,1.953,1.363,2.151,1.518,0.604,1.073,0.993,��,3.8,��
2016/10/17,05:10,1.168,1.957,1.365,2.156,1.519,0.603,1.075,0.991,��,2.9,��
2016/10/17,05:20,1.170,1.952,1.361,2.155,1.516,0.605,1.071,0.990,��쐼,4.1,�L
2016/10/17,05:30,1.169,1.950,1.364,2.154,1.516,0.603,1.073,0.992,��쐼,4.6,�L
2016/10/17,05:40,1.169,1.953,1.362,2.151,1.516,0.604,1.073,0.991,��,5.5,�L
2016/10/17,05:50,1.168,1.949,1.359,2.154,1.514,0.606,1.072,0.991,��,6.7,�L
2016/10/17,06:00,1.171,1.948,1.360,2.151,1.508,0.604,1.072,0.989,��,7.4,�L
2016/10/17,06:10,1.166,1.938,1.357,2.146,1.510,0.602,1.071,0.989,��,7.1,�L
2016/10/17,06:20,1.165,1.939,1.357,2.147,1.506,0.604,1.071,0.987,��,6.9,��
2016/10/17,06:30,1.163,1.940,1.357,2.145,1.506,0.602,1.072,0.989,��,7.1,��
2016/10/17,06:40,1.165,1.942,1.357,2.144,1.503,0.600,1.071,0.990,��,7.8,��
2016/10/17,06:50,1.165,1.941,1.357,2.146,1.505,0.601,1.070,0.988,��,8.5,��
2016/10/17,07:00,1.163,1.939,1.358,2.142,1.509,0.601,1.071,0.987,��,9.1,�L
2016/10/17,07:10,1.166,1.937,1.356,2.146,1.506,0.603,1.071,0.988,��,8.0,�L
2016/10/17,07:20,1.162,1.934,1.356,2.142,1.502,0.602,1.070,0.988,��,9.4,�L
2016/10/17,07:30,1.162,1.931,1.345,2.141,1.502,0.602,1.070,0.986,��,8.3,�L
2016/10/17,07:40,1.157,1.926,1.325,2.138,1.497,0.601,1.070,0.985,��,6.7,�L
2016/10/17,07:50,1.157,1.920,1.343,2.134,1.495,0.603,1.069,0.987,��,5.2,�L
2016/10/17,08:00,1.156,1.920,1.345,2.134,1.495,0.601,1.071,0.983,��,4.6,��
2016/10/17,08:10,1.155,1.917,1.340,2.137,1.495,0.602,1.068,0.985,��,4.9,��
2016/10/17,08:20,1.157,1.916,1.336,2.135,1.493,0.602,1.069,0.984,��,4.1,��
2016/10/17,08:30,1.156,1.922,1.335,2.133,1.492,0.599,1.069,0.983,��,3.8,��
2016/10/17,08:40,1.154,1.920,1.336,2.133,1.494,0.598,1.069,0.986,��,5.2,��
2016/10/17,08:50,1.154,1.917,1.336,2.135,1.492,0.601,1.067,0.984,��,6.4,��
2016/10/17,09:00,1.155,1.909,1.334,2.134,1.495,0.601,1.068,0.985,��,7.7,��
2016/10/17,09:10,1.154,1.907,1.335,2.132,1.489,0.602,1.068,0.985,��,8.9,��
2016/10/17,09:20,1.155,1.918,1.337,2.133,1.493,0.600,1.068,0.984,��,8.9,��
2016/10/17,09:30,1.154,1.899,1.338,2.135,1.493,0.600,1.071,0.986,��쓌,10.1,��
2016/10/17,09:40,1.153,1.912,1.335,2.135,1.492,0.598,1.069,0.987,��쓌,9.7,��
2016/10/17,09:50,1.152,1.923,1.326,2.131,1.489,0.599,1.068,0.983,��,8.8,��
2016/10/17,10:00,1.153,1.918,1.315,2.131,1.482,0.599,1.069,0.984,��쓌,9.7,��
2016/10/17,10:10,1.154,1.922,1.328,2.132,1.492,0.600,1.069,0.984,��,8.0,��
2016/10/17,10:20,1.150,1.924,1.330,2.133,1.493,0.600,1.069,0.983,��,7.1,��
2016/10/17,10:30,1.155,1.922,1.337,2.133,1.492,0.601,1.070,0.986,��,5.5,��
2016/10/17,10:40,1.155,1.927,1.337,2.135,1.490,0.601,1.071,0.986,��,6.3,��
2016/10/17,10:50,1.154,1.927,1.334,2.138,1.496,0.600,1.069,0.985,��,7.2,��
2016/10/17,11:00,1.156,1.930,1.332,2.135,1.494,0.601,1.072,0.985,��,6.9,��
2016/10/17,11:10,1.157,1.926,1.334,2.136,1.495,0.600,1.072,0.985,��,6.0,��
2016/10/17,11:20,1.155,1.928,1.340,2.137,1.498,0.600,1.070,0.985,��,6.6,��
2016/10/17,11:30,1.156,1.925,1.340,2.141,1.494,0.602,1.071,0.985,��,6.4,��
2016/10/17,11:40,1.159,1.928,1.340,2.141,1.496,0.602,1.072,0.986,��,4.9,��
2016/10/17,11:50,1.155,1.927,1.341,2.142,1.497,0.601,1.070,0.987,��,4.5,��
2016/10/17,12:00,1.156,1.928,1.339,2.142,1.498,0.602,1.072,0.987,��,4.6,��
2016/10/17,12:10,1.157,1.927,1.340,2.142,1.500,0.603,1.072,0.986,��,5.3,��
2016/10/17,12:20,1.156,1.925,1.341,2.140,1.498,0.602,1.071,0.985,��쓌,6.7,��
2016/10/17,12:30,1.159,1.924,1.343,2.142,1.501,0.603,1.071,0.984,��쓌,7.4,��
2016/10/17,12:40,1.156,1.924,1.344,2.143,1.499,0.602,1.072,0.985,��쓌,8.3,��
2016/10/17,12:50,1.158,1.923,1.342,2.141,1.498,0.603,1.071,0.985,��,8.3,��
2016/10/17,13:00,1.157,1.927,1.342,2.141,1.499,0.605,1.072,0.983,��,6.9,��
2016/10/17,13:10,1.159,1.926,1.344,2.140,1.501,0.603,1.072,0.984,��,6.0,��
2016/10/17,13:20,1.159,1.930,1.343,2.143,1.504,0.603,1.073,0.984,��,6.9,��
2016/10/17,13:30,1.159,1.930,1.343,2.144,1.502,0.605,1.073,0.986,��,7.2,��
2016/10/17,13:40,1.159,1.928,1.344,2.143,1.503,0.604,1.072,0.984,��,7.2,��
2016/10/17,13:50,1.159,1.931,1.343,2.143,1.501,0.604,1.073,0.986,��,6.6,��
2016/10/17,14:00,1.160,1.934,1.343,2.141,1.502,0.603,1.073,0.987,��,6.7,��
2016/10/17,14:10,1.159,1.931,1.343,2.142,1.501,0.605,1.074,0.986,��,6.0,��
2016/10/17,14:20,1.161,1.934,1.344,2.145,1.497,0.603,1.075,0.986,��,5.5,��
2016/10/17,14:30,1.160,1.928,1.345,2.143,1.502,0.604,1.074,0.986,��,4.5,��
2016/10/17,14:40,1.160,1.932,1.346,2.144,1.502,0.606,1.075,0.987,��,5.6,��
2016/10/17,14:50,1.161,1.927,1.346,2.145,1.504,0.604,1.074,0.986,��쐼,5.2,��
2016/10/17,15:00,1.160,1.933,1.344,2.147,1.502,0.604,1.073,0.986,��쓌,5.8,��
2016/10/17,15:10,1.160,1.932,1.349,2.145,1.503,0.604,1.075,0.987,��,5.0,��
2016/10/17,15:20,1.159,1.937,1.347,2.145,1.504,0.605,1.074,0.986,��,5.2,��
2016/10/17,15:30,1.160,1.932,1.349,2.144,1.505,0.604,1.074,0.988,��,5.5,��
2016/10/17,15:40,1.162,1.937,1.350,2.145,1.503,0.604,1.074,0.987,��쐼,5.8,��
2016/10/17,15:50,1.161,1.936,1.351,2.147,1.509,0.604,1.074,0.989,��쐼,6.3,��
2016/10/17,16:00,1.164,1.936,1.349,2.149,1.514,0.606,1.075,0.987,��쐼,7.4,��
2016/10/17,16:10,1.162,1.936,1.348,2.145,1.507,0.606,1.073,0.987,��쐼,7.5,��
2016/10/17,16:20,1.164,1.932,1.349,2.148,1.507,0.604,1.074,0.989,��쐼,8.0,��
2016/10/17,16:30,1.160,1.938,1.349,2.147,1.507,0.606,1.074,0.987,��쐼,8.8,��
2016/10/17,16:40,1.164,1.940,1.351,2.148,1.506,0.607,1.075,0.988,��쐼,8.8,��
2016/10/17,16:50,1.161,1.937,1.350,2.147,1.508,0.606,1.075,0.988,��쐼,7.2,��
2016/10/17,17:00,1.161,1.937,1.349,2.147,1.506,0.606,1.074,0.988,�쐼,7.1,��
2016/10/17,17:10,1.163,1.939,1.349,2.149,1.510,0.606,1.076,0.986,�쐼,6.9,��
2016/10/17,17:20,1.163,1.938,1.349,2.148,1.507,0.607,1.073,0.989,�쐼,5.8,��
2016/10/17,17:30,1.159,1.937,1.350,2.148,1.509,0.607,1.074,0.987,��쐼,5.0,��
2016/10/17,17:40,1.164,1.940,1.351,2.147,1.510,0.605,1.074,0.988,��쐼,5.3,��
2016/10/17,17:50,1.164,1.941,1.350,2.146,1.510,0.607,1.072,0.989,��쐼,3.8,��
2016/10/17,18:00,1.166,1.944,1.350,2.147,1.508,0.607,1.071,0.990,��쐼,3.0,��
2016/10/17,18:10,1.164,1.941,1.350,2.145,1.507,0.607,1.072,0.990,��쓌,2.4,��
2016/10/17,18:20,1.165,1.942,1.352,2.150,1.509,0.608,1.073,0.988,��,2.9,��
2016/10/17,18:30,1.164,1.941,1.348,2.147,1.508,0.607,1.073,0.989,��,3.8,��
2016/10/17,18:40,1.165,1.942,1.349,2.146,1.508,0.607,1.071,0.988,��,3.8,��
2016/10/17,18:50,1.165,1.942,1.351,2.149,1.508,0.609,1.072,0.989,��,4.1,��
2016/10/17,19:00,1.164,1.941,1.351,2.144,1.508,0.606,1.073,0.989,��,3.4,��
2016/10/17,19:10,1.166,1.938,1.349,2.147,1.509,0.608,1.076,0.989,��,1.9,��
2016/10/17,19:20,1.164,1.941,1.350,2.145,1.511,0.607,1.074,0.990,��쓌,3.3,��
2016/10/17,19:30,1.164,1.943,1.351,2.147,1.509,0.608,1.076,0.990,��쓌,3.6,��
2016/10/17,19:40,1.164,1.940,1.351,2.144,1.509,0.608,1.076,0.989,��,4.5,��
2016/10/17,19:50,1.167,1.940,1.350,2.146,1.510,0.608,1.076,0.989,��쐼,5.5,��
2016/10/17,20:00,1.163,1.940,1.354,2.146,1.510,0.608,1.074,0.990,��쐼,3.9,��
2016/10/17,20:10,1.165,1.939,1.351,2.147,1.508,0.609,1.075,0.989,��쐼,2.8,��
2016/10/17,20:20,1.165,1.941,1.352,2.147,1.511,0.608,1.076,0.991,��쓌,3.8,��
2016/10/17,20:30,1.161,1.939,1.350,2.144,1.507,0.607,1.075,0.990,��,3.8,��
2016/10/17,20:40,1.163,1.940,1.350,2.144,1.511,0.608,1.075,0.988,��쓌,4.9,��
2016/10/17,20:50,1.166,1.939,1.350,2.145,1.508,0.610,1.076,0.991,��쓌,3.5,��
2016/10/17,21:00,1.165,1.939,1.351,2.148,1.512,0.608,1.076,0.988,��쐼,2.6,��
2016/10/17,21:10,1.165,1.942,1.349,2.147,1.511,0.606,1.075,0.989,��쓌,3.1,��
2016/10/17,21:20,1.163,1.940,1.350,2.147,1.510,0.608,1.075,0.991,��,2.1,��
2016/10/17,21:30,1.163,1.941,1.350,2.146,1.510,0.607,1.074,0.991,��,3.5,��
2016/10/17,21:40,1.162,1.942,1.351,2.146,1.509,0.607,1.074,0.990,��,5.0,��
2016/10/17,21:50,1.166,1.939,1.349,2.146,1.510,0.606,1.076,0.990,��쐼,6.4,��
2016/10/17,22:00,1.165,1.935,1.351,2.147,1.509,0.605,1.076,0.989,��쐼,6.3,��
2016/10/17,22:10,1.164,1.940,1.351,2.146,1.509,0.608,1.075,0.990,��쐼,5.5,��
2016/10/17,22:20,1.165,1.938,1.349,2.144,1.511,0.607,1.076,0.990,��,4.1,��
2016/10/17,22:30,1.167,1.937,1.351,2.145,1.510,0.606,1.076,0.989,��,4.1,��
2016/10/17,22:40,1.165,1.939,1.349,2.146,1.509,0.607,1.075,0.989,��,4.6,��
2016/10/17,22:50,1.163,1.937,1.347,2.148,1.509,0.607,1.074,0.990,��,4.6,��
2016/10/17,23:00,1.165,1.941,1.348,2.151,1.509,0.609,1.075,0.989,��,5.3,��
2016/10/17,23:10,1.164,1.938,1.348,2.147,1.511,0.606,1.076,0.990,��쐼,3.6,��
2016/10/17,23:20,1.164,1.939,1.351,2.144,1.509,0.608,1.076,0.990,�쐼,3.8,��
2016/10/17,23:30,1.167,1.938,1.350,2.147,1.512,0.608,1.075,0.988,�쐼,5.2,��
2016/10/17,23:40,1.165,1.936,1.348,2.145,1.508,0.607,1.075,0.989,�쐼,5.0,��
2016/10/17,23:50,1.164,1.940,1.347,2.148,1.510,0.607,1.075,0.987,��쐼,4.7,��
